Boothville, LA

9:58 PM CDT on June 25, 2017 (GMT -0500)
Boothville

Weather History for KBVE - November, 2012

Change the Weather History Date:

Tuesday, November 27, 2012

  Actual Average (KAXO) Record (KAXO)
Temperature  
Mean Temperature 64 °F -  
Max Temperature 68 °F 63 °F 77 °F (2001)
Min Temperature 59 °F 60 °F 42 °F (2013)
Degree Days  
Heating Degree Days 2    
Growing Degree Days 14 (Base 50)    
Moisture  
Dew Point 62 °F    
Average Humidity 93    
Maximum Humidity 100    
Minimum Humidity 81    
Precipitation  
Precipitation 0.49 in - - ()
Sea Level Pressure  
Sea Level Pressure 30.18 in    
Wind  
Wind Speed 7 mph (NNE)    
Max Wind Speed 16 mph    
Max Gust Speed 29 mph    
Visibility 8 miles    
Events Fog , Rain    
Averages and records for this station are not official NWS values.
T = Trace of Precipitation, MM = Missing Value Source: NWS Daily Summary

Daily Weather History Graph

Daily Weather History Graph

Search for Another Location

Airport or City:

Trip Planner

Search our weather history database for the weather conditions in past years. The results will help you decide how hot, cold, wet, or windy it might be!

Date:

Astronomy

Nov. 27, 2012 Rise Set
Actual Time 6:31 AM CST 4:59 PM CST
Civil Twilight 6:05 AM CST 5:24 PM CST
Nautical Twilight 5:36 AM CST 5:53 PM CST
Astronomical Twilight 5:08 AM CST 6:22 PM CST
Moon 4:29 PM CST (11/27) 5:38 AM CST (11/27)
Length of Visible Light 11h 18m
Length of Day
10h 27m
Waxing Gibbous, 99% of the Moon is Illuminated
Nov 27
Waxing Gibbous
Nov 28
Full
Dec 6
Last Quarter
Dec 13
New
Dec 19
First Quarter

Hourly Weather History & Observations

Time (CST) Temp. Dew Point Humidity Pressure Visibility Wind Dir Wind Speed Gust Speed Precip Events Conditions
12:51 AM 66.9 °F 64.9 °F 93% 30.11 in 10.0 mi SSE 6.9 mph - 0.04 in   Overcast
1:51 AM 66.9 °F 64.9 °F 93% 30.12 in 10.0 mi SSE 6.9 mph - 0.00 in   Mostly Cloudy
2:51 AM 66.0 °F 64.9 °F 96% 30.09 in 10.0 mi SSE 8.1 mph - 0.00 in   Scattered Clouds
3:51 AM 66.0 °F 64.9 °F 96% 30.08 in 10.0 mi South 8.1 mph - N/A   Mostly Cloudy
4:51 AM 66.9 °F 64.9 °F 93% 30.08 in 10.0 mi South 5.8 mph - N/A   Overcast
5:51 AM 66.0 °F 64.9 °F 96% 30.09 in 10.0 mi SSW 3.5 mph - N/A   Mostly Cloudy
6:51 AM 66.9 °F 64.9 °F 93% 30.11 in 10.0 mi SW 3.5 mph - 0.00 in   Overcast
7:51 AM 68.0 °F 66.0 °F 93% 30.14 in 10.0 mi Calm Calm - 0.00 in   Overcast
7:58 AM 68.0 °F 66.2 °F 94% 30.14 in 10.0 mi Calm Calm - N/A   Overcast
8:09 AM 68.0 °F 66.2 °F 94% 30.14 in 10.0 mi Calm Calm - N/A   Overcast
8:51 AM 68.0 °F 66.9 °F 96% 30.15 in 7.0 mi SSW 4.6 mph - 0.01 in   Overcast
9:07 AM 66.2 °F 66.2 °F 100% 30.15 in 0.5 mi SSW 16.1 mph 19.6 mph 0.00 in Fog , Rain Light Rain
9:18 AM 68.0 °F 66.2 °F 94% 30.16 in 3.0 mi SSW 9.2 mph - 0.22 in Rain Light Rain
9:28 AM 64.4 °F 62.6 °F 94% 30.20 in 8.0 mi NNW 13.8 mph 28.8 mph 0.22 in   Overcast
9:33 AM 64.4 °F 60.8 °F 88% 30.21 in 1.2 mi NNW 13.8 mph 28.8 mph 0.22 in Rain Light Rain
9:38 AM 62.6 °F 60.8 °F 94% 30.19 in 0.8 mi NNW 15.0 mph 26.5 mph 0.38 in Rain Heavy Rain
9:45 AM 62.6 °F 60.8 °F 94% 30.20 in 2.5 mi North 11.5 mph 24.2 mph 0.40 in Rain Light Rain
9:51 AM 63.0 °F 61.0 °F 93% 30.21 in 4.0 mi North 5.8 mph 24.2 mph 0.40 in Rain Light Rain
10:15 AM 62.6 °F 60.8 °F 94% 30.22 in 4.0 mi NNE 8.1 mph - 0.02 in Rain Light Rain
10:51 AM 63.0 °F 61.0 °F 93% 30.22 in 8.0 mi ENE 8.1 mph - 0.03 in Rain Light Rain
11:51 AM 62.1 °F 61.0 °F 96% 30.17 in 9.0 mi East 11.5 mph - 0.01 in Rain Light Rain
12:51 PM 64.0 °F 62.1 °F 93% 30.12 in 10.0 mi East 13.8 mph 23.0 mph 0.00 in   Scattered Clouds
1:51 PM 66.9 °F 63.0 °F 87% 30.14 in 10.0 mi East 10.4 mph - N/A   Clear
2:51 PM 68.0 °F 62.1 °F 81% 30.14 in 10.0 mi ENE 5.8 mph - N/A   Clear
3:51 PM 66.9 °F 61.0 °F 81% 30.17 in 10.0 mi Calm Calm - N/A   Scattered Clouds
4:51 PM 64.0 °F 62.1 °F 93% 30.19 in 10.0 mi NNW 4.6 mph - N/A   Overcast
5:51 PM 64.0 °F 62.1 °F 93% 30.21 in 10.0 mi NNW 3.5 mph - N/A   Overcast
6:51 PM 63.0 °F 62.1 °F 97% 30.23 in 10.0 mi North 4.6 mph - N/A   Overcast
7:03 PM 62.6 °F 62.6 °F 100% 30.23 in 10.0 mi Variable 3.5 mph - N/A   Overcast
7:15 PM 62.6 °F 60.8 °F 94% 30.23 in 9.0 mi Variable 6.9 mph - N/A   Overcast
7:42 PM 60.8 °F 60.8 °F 100% 30.24 in 9.0 mi Variable 5.8 mph - N/A   Overcast
7:51 PM 61.0 °F 59.0 °F 93% 30.25 in 10.0 mi North 5.8 mph - N/A   Overcast
8:51 PM 61.0 °F 59.0 °F 93% 30.26 in 10.0 mi North 8.1 mph - N/A   Overcast
9:51 PM 60.1 °F 57.9 °F 93% 30.27 in 10.0 mi North 8.1 mph 16.1 mph N/A   Overcast
10:51 PM 59.0 °F 57.0 °F 93% 30.27 in 10.0 mi North 5.8 mph - N/A   Overcast
11:51 PM 59.0 °F 55.9 °F 90% 30.27 in 10.0 mi North 5.8 mph - N/A   Overcast